Lawrence, KS

6:51 PM CDT on August 29, 2016 (GMT -0500)
Lawrence Municipal

Weather History for KLWC - July, 2014

Change the Weather History Date:

Thursday, July 3, 2014

  Actual Average Record
Temperature  
Mean Temperature 66 °F 77 °F  
Max Temperature 83 °F 88 °F 102 °F (2012)
Min Temperature 49 °F 67 °F 49 °F (2014)
Degree Days  
Heating Degree Days 0 0  
Month to date heating degree days 1 0  
Since 1 June heating degree days 1 8  
Since 1 July heating degree days 1 0  
Cooling Degree Days 1 12  
Month to date cooling degree days 10 36  
Year to date cooling degree days 521 430  
Since 1 June cooling degree days 328 311  
Growing Degree Days 16 (Base 50)    
Moisture  
Dew Point 53 °F    
Average Humidity 68    
Maximum Humidity 100    
Minimum Humidity 36    
Precipitation  
Precipitation 0.00 in 0.17 in 1.86 in (2015)
Month to date precipitation 0.00 0.53  
Year to date precipitation 16.82 19.88  
Sea Level Pressure  
Sea Level Pressure 30.20 in    
Wind  
Wind Speed 4 mph (North)    
Max Wind Speed 9 mph    
Max Gust Speed 14 mph    
Visibility 9 miles    
Events      
T = Trace of Precipitation, MM = Missing Value Source: NWS Daily Summary

Daily Weather History Graph

Daily Weather History Graph

Search for Another Location

Airport or City:

Trip Planner

Search our weather history database for the weather conditions in past years. The results will help you decide how hot, cold, wet, or windy it might be!

Date:

Astronomy

Jul. 03, 2014 Rise Set
Actual Time 5:59 AM CDT 8:50 PM CDT
Civil Twilight 5:27 AM CDT 9:22 PM CDT
Nautical Twilight 4:47 AM CDT 10:02 PM CDT
Astronomical Twilight 4:01 AM CDT 10:47 PM CDT
Moon 11:56 AM CDT (7/3) No Moon Set
Length of Visible Light 15h 54m
Length of Day
14h 50m
Waxing Crescent, 33% of the Moon is Illuminated
Jul 3
Waxing Crescent
Jul 5
First Quarter
Jul 12
Full
Jul 18
Last Quarter
Jul 26
New

Hourly Weather History & Observations

Time (CDT) Temp. Heat Index Dew Point Humidity Pressure Visibility Wind Dir Wind Speed Gust Speed Precip Events Conditions
12:52 AM 52.0 °F - 51.1 °F 97% 30.18 in 7.0 mi NW 3.5 mph - N/A   Clear
1:52 AM 52.0 °F - 50.0 °F 93% 30.19 in 10.0 mi WNW 4.6 mph - N/A   Clear
2:52 AM 51.1 °F - 48.9 °F 92% 30.20 in 7.0 mi NNW 3.5 mph - N/A   Clear
3:52 AM 51.1 °F - 48.9 °F 92% 30.21 in 7.0 mi NNW 3.5 mph - N/A   Clear
4:52 AM 50.0 °F - 48.0 °F 93% 30.22 in 9.0 mi NW 4.6 mph - N/A   Clear
5:52 AM 51.1 °F - 48.0 °F 89% 30.22 in 9.0 mi WNW 3.5 mph - N/A   Clear
6:52 AM 53.1 °F - 50.0 °F 89% 30.22 in 7.0 mi Calm Calm - N/A   Clear
7:52 AM 59.0 °F - 55.0 °F 87% 30.23 in 8.0 mi Calm Calm - N/A   Clear
9:52 AM 71.1 °F - 57.0 °F 61% 30.24 in 10.0 mi NW 4.6 mph - N/A   Clear
10:52 AM 75.0 °F - 52.0 °F 44% 30.23 in 10.0 mi NW 8.1 mph - N/A   Clear
11:52 AM 75.9 °F - 51.1 °F 42% 30.23 in 10.0 mi Variable 4.6 mph - N/A   Clear
12:52 PM 77.0 °F - 50.0 °F 39% 30.23 in 10.0 mi Variable 3.5 mph - N/A   Clear
2:52 PM 80.1 °F - 52.0 °F 38% 30.21 in 10.0 mi Variable 4.6 mph - N/A   Clear
3:52 PM 81.0 °F 80.4 °F 53.1 °F 38% 30.20 in 10.0 mi Variable 3.5 mph - N/A   Clear
4:52 PM 82.0 °F 81.2 °F 53.1 °F 37% 30.19 in 10.0 mi East 3.5 mph - N/A   Clear
5:52 PM 81.0 °F 80.4 °F 53.1 °F 38% 30.17 in 10.0 mi East 4.6 mph - N/A   Clear
6:52 PM 80.1 °F 79.9 °F 53.1 °F 39% 30.16 in 10.0 mi ESE 4.6 mph - N/A   Clear
7:52 PM 79.0 °F - 57.9 °F 48% 30.16 in 10.0 mi ENE 3.5 mph - N/A   Clear
8:52 PM 69.1 °F - 60.1 °F 73% 30.16 in 8.0 mi ENE 4.6 mph - N/A   Clear
9:52 PM 64.9 °F - 57.9 °F 78% 30.17 in 10.0 mi ENE 4.6 mph - N/A   Clear
10:52 PM 64.9 °F - 57.0 °F 75% 30.19 in 10.0 mi Calm Calm - N/A   Clear
11:52 PM 61.0 °F - 57.0 °F 87% 30.21 in 10.0 mi SE 4.6 mph - N/A   Clear